Location: Christchurch
(43.5330°S, 172.6330°E)
Time: 16:47:53
(UTC+12:00)

Cosmos 1745 Rocket - Pass Details

Date: 24 January 2019
Orbit: 952 x 999 km, 83.0° (Epoch: 19 April)

Event Time Altitude Azimuth Distance (km) Brightness Sun altitude
Exits shadow 23:05:28 17° 357° (N) 2,295 5.5 -17.8°
Maximum altitude 23:10:33 86° 83° (E) 1,013 4.0 -18.3°
Drops below altitude 10° 23:16:58 10° 171° (S) 2,780 7.0 -19.0°
Sets 23:19:30 0° 171° (S) 3,728 7.7 -19.3°
